Location: ???????
(55.2903°N, 39.1554°E)
Time: 00:19:45
(UTC+00:00)

BlueWalker 3 - Visible Passes

Search period start: 19 May 2026 00:00
Search period end: 29 May 2026 00:00
Orbit: 447 x 457 km, 53.2° (Epoch: 18 May)

Date Brightness Start Highest point End Pass type
(mag) Time Alt. Az. Time Alt. Az. Time Alt. Az.
19 May 2.3 20:39:56 27° S 20:40:58 33° SSE 20:44:12 10° E visible
19 May 1.6 22:14:33 10° WSW 22:18:04 62° S 22:21:35 10° E visible
19 May 1.9 23:51:50 10° W 23:55:15 48° SSW 23:58:41 10° ESE visible
20 May 2.5 20:01:07 10° SSW 20:04:13 29° SSE 20:07:20 10° E visible
20 May 1.7 21:37:45 10° WSW 21:41:15 59° S 21:44:46 10° E visible
20 May 1.8 23:15:01 10° W 23:18:29 52° SSW 23:21:56 10° ESE visible
21 May 2.7 19:24:32 10° SSW 19:27:29 25° SSE 19:30:26 10° E visible
21 May 1.7 21:00:59 10° WSW 21:04:27 56° S 21:07:56 10° E visible
21 May 1.7 22:38:11 10° W 22:41:41 56° S 22:45:09 10° ESE visible
22 May 3.0 18:48:01 10° SSW 18:50:45 21° SSE 18:53:29 10° E visible
22 May 1.8 20:24:12 10° WSW 20:27:39 52° SSE 20:31:07 10° E visible
22 May 1.6 22:01:22 10° W 22:04:52 60° S 22:08:22 10° ESE visible
22 May 2.5 23:38:47 10° W 23:41:55 29° SSW 23:45:02 10° SE visible
23 May 1.9 19:47:26 10° WSW 19:50:51 47° SSE 19:54:16 10° E visible
23 May 1.6 21:24:32 10° W 21:28:02 62° S 21:31:33 10° ESE visible
23 May 2.3 23:01:54 10° W 23:05:09 34° SSW 23:08:23 10° SE visible
24 May 2.1 19:10:40 10° SW 19:14:02 42° SSE 19:17:25 10° E visible
24 May 1.6 20:47:42 10° W 20:51:13 63° S 20:54:44 10° E visible
24 May 2.1 22:25:01 10° W 22:28:22 39° SSW 22:31:41 10° SE visible
25 May 3.5 00:03:18 10° WSW 00:05:03 13° SW 00:06:47 10° S visible
25 May 2.3 18:33:57 10° SW 18:37:15 37° SSE 18:40:33 10° E visible
25 May 1.6 20:10:51 10° W 20:14:23 63° S 20:17:53 10° E visible
25 May 2.0 21:48:09 10° W 21:51:33 44° SSW 21:54:56 10° SE visible
25 May 3.3 23:26:05 10° WSW 23:28:20 16° SW 23:30:34 10° S visible
26 May 1.7 19:34:01 10° WSW 19:37:32 61° S 19:41:03 10° E visible
26 May 1.9 21:11:17 10° W 21:14:44 49° SSW 21:18:10 10° ESE visible
26 May 3.1 22:49:00 10° W 22:51:36 19° SW 22:52:37 17° SSW visible
27 May 1.7 18:57:11 10° WSW 19:00:41 58° S 19:04:11 10° E visible
27 May 1.8 20:34:25 10° W 20:37:54 54° SSW 20:41:22 10° ESE visible
27 May 2.9 22:11:59 10° W 22:14:50 23° SSW 22:15:25 22° SSW visible
28 May 1.7 19:57:33 10° W 20:01:03 58° S 20:04:33 10° ESE visible
28 May 2.7 21:35:01 10° W 21:38:03 26° SSW 21:38:53 24° S visible
